Date String (YYYY-MM-DD hh:mm:ss) UTC,Instrument flags,absolute air pressure of the measurement (hPa),sample flow rate (lpm),inlet stack bypass flow (lpm),air temperature of the measurement (°C),ambient temperature measured by the external sensor (°C),aerosol sample conditioner tube jacket temperature (°C),OPC LED temperature (°C),internal box temperature (°C),relative humidity of the measurement (%),span deviation,mass concentration of particles derived from Lorenz-Mie calculation of OPC scattering (μg/m³),mass concentration of particles derived from Lorenz-Mie calculation of OPC scattering (μg/m³),mass concentration of particles derived from Lorenz-Mie calculation of OPC scattering (μg/m³)
DateTimeUTC,F1_M11,P_M11,Q1_M11,Q2_M11,T1_M11,T2_M11,T3_M11,T4_M11,T5_M11,U1_M11,ZSPAN_M11,X2_M11,X0_M11,X1_M11
2024-05-09 22:00:00,SystemResetWarning,0833.0,5.00,000.00,024.9,023.7,000.0,033.2,026.6,017.4,0000.0,0001.16,0003.74,0001.01
2024-05-09 22:01:00,SystemResetWarning,0833.0,5.01,000.00,024.9,024.0,000.0,033.2,026.7,017.4,0000.0,0001.16,0003.80,0000.99
2024-05-09 22:02:00,SystemResetWarning,0833.0,5.00,000.00,025.0,024.2,000.0,033.2,026.8,017.3,0000.0,0001.19,0003.92,0000.98
2024-05-09 22:03:00,SystemResetWarning,0833.0,5.00,000.00,025.1,024.4,000.0,033.2,026.9,017.7,0000.0,0001.20,0003.38,0000.97
2024-05-09 22:04:00,SystemResetWarning,0833.0,5.00,000.00,025.1,024.5,000.0,033.2,027.0,017.1,0000.0,0001.16,0003.37,0000.94
2024-05-09 22:05:00,SystemResetWarning,0833.2,5.00,000.00,025.2,024.6,000.0,033.2,027.1,017.0,0000.0,0001.15,0003.43,0000.92
2024-05-09 22:06:00,SystemResetWarning,0833.3,5.00,000.00,025.3,024.8,000.0,033.3,027.2,016.8,0000.0,0001.15,0003.23,0000.91
2024-05-09 22:07:00,SystemResetWarning,0833.6,4.99,000.00,025.3,024.9,000.0,033.3,027.2,016.5,0000.0,0001.17,0003.82,0000.91
2024-05-09 22:08:00,SystemResetWarning,0833.2,5.00,000.00,025.4,025.0,000.0,033.3,027.3,016.7,0000.0,0001.22,0004.12,0000.92
2024-05-09 22:09:00,SystemResetWarning,0833.1,5.00,000.00,025.4,025.0,000.0,033.4,027.3,016.4,0000.0,0001.21,0005.70,0000.92
2024-05-09 22:10:00,SystemResetWarning,0833.2,4.98,000.00,025.3,023.7,000.0,033.5,026.6,016.4,0000.0,0001.23,0005.74,0000.92
2024-05-09 22:11:00,SystemResetWarning,0833.0,5.02,000.00,024.9,022.1,000.0,033.5,025.7,016.8,0000.0,0001.23,0005.66,0000.91
2024-05-09 22:12:00,SystemResetWarning,0833.0,5.01,000.00,024.7,022.2,000.0,033.5,025.6,017.4,0000.0,0001.25,0005.71,0000.92
2024-05-09 22:13:00,SystemResetWarning,0833.2,5.00,000.00,024.7,022.6,000.0,033.3,025.9,017.8,0000.0,0001.20,0005.10,0000.90
2024-05-09 22:14:00,SystemResetWarning,0833.1,5.00,000.00,024.7,022.9,000.0,033.2,026.1,017.5,0000.0,0001.19,0005.03,0000.90
2024-05-09 22:15:00,SystemResetWarning,0833.1,4.99,000.00,024.7,023.3,000.0,033.2,026.3,017.7,0000.0,0001.26,0005.31,0000.93
2024-05-09 22:16:00,SystemResetWarning,0833.2,5.00,000.00,024.8,023.6,000.0,033.1,026.5,017.4,0000.0,0001.29,0005.84,0000.95
2024-05-09 22:17:00,SystemResetWarning,0833.2,5.00,000.00,024.8,023.8,000.0,033.1,026.6,017.4,0000.0,0001.30,0005.89,0000.95
2024-05-09 22:18:00,SystemResetWarning,0833.2,5.00,000.00,024.9,024.0,000.0,033.1,026.7,017.6,0000.0,0001.29,0005.02,0000.95
2024-05-09 22:19:00,SystemResetWarning,0833.2,5.00,000.00,025.0,024.2,000.0,033.1,026.8,017.5,0000.0,0001.26,0006.38,0000.94
2024-05-09 22:20:00,SystemResetWarning,0833.2,5.00,000.00,025.0,024.4,000.0,033.1,026.9,017.3,0000.0,0001.29,0004.82,0000.93
2024-05-09 22:21:00,SystemResetWarning,0833.2,5.00,000.00,025.1,024.5,000.0,033.2,027.0,017.2,0000.0,0001.36,0005.33,0000.94
2024-05-09 22:22:00,SystemResetWarning,0833.2,4.99,000.00,025.2,024.6,000.0,033.2,027.1,017.3,0000.0,0001.37,0005.59,0000.94
2024-05-09 22:23:00,SystemResetWarning,0833.3,5.00,000.00,025.2,024.8,000.0,033.2,027.1,017.1,0000.0,0001.37,0005.57,0000.94
2024-05-09 22:24:00,SystemResetWarning,0833.2,5.00,000.00,025.3,024.9,000.0,033.3,027.2,016.9,0000.0,0001.44,0005.84,0000.96
2024-05-09 22:25:00,SystemResetWarning,0833.2,5.00,000.00,025.4,024.9,000.0,033.3,027.3,017.2,0000.0,0001.49,0006.08,0000.96
2024-05-09 22:26:00,SystemResetWarning,0833.2,5.00,000.00,025.2,023.5,000.0,033.4,026.5,017.3,0000.0,0001.49,0006.17,0000.94
2024-05-09 22:27:00,SystemResetWarning,0833.2,5.01,000.00,024.8,021.9,000.0,033.4,025.5,017.5,0000.0,0001.48,0005.75,0000.93
2024-05-09 22:28:00,SystemResetWarning,0833.2,5.02,000.00,024.6,022.0,000.0,033.4,025.5,017.8,0000.0,0001.51,0005.46,0000.95
2024-05-09 22:29:00,SystemResetWarning,0833.2,5.00,000.00,024.6,022.4,000.0,033.3,025.8,018.0,0000.0,0001.56,0005.93,0000.97
2024-05-09 22:30:00,SystemResetWarning,0833.3,5.00,000.00,024.6,022.8,000.0,033.2,026.1,017.9,0000.0,0001.58,0005.95,0000.98
2024-05-09 22:31:00,SystemResetWarning,0833.3,4.99,000.00,024.6,023.1,000.0,033.1,026.3,017.9,0000.0,0001.57,0005.88,0000.99
2024-05-09 22:32:00,SystemResetWarning,0833.3,5.00,000.00,024.7,023.4,000.0,033.1,026.4,018.2,0000.0,0001.50,0005.45,0000.98
2024-05-09 22:33:00,SystemResetWarning,0833.4,5.00,000.00,024.8,023.7,000.0,033.0,026.5,018.5,0000.0,0001.48,0005.15,0000.97
2024-05-09 22:34:00,SystemResetWarning,0833.3,5.01,000.00,024.8,023.9,000.0,033.0,026.6,018.9,0000.0,0001.50,0005.32,0000.97
2024-05-09 22:35:00,SystemResetWarning,0833.3,5.00,000.00,024.9,024.1,000.0,033.1,026.7,018.9,0000.0,0001.47,0005.38,0000.96
2024-05-09 22:36:00,SystemResetWarning,0833.4,5.00,000.00,024.9,024.3,000.0,033.1,026.8,018.7,0000.0,0001.52,0005.78,0000.96
2024-05-09 22:37:00,SystemResetWarning,0833.5,5.00,000.00,025.0,024.4,000.0,033.1,026.9,019.0,0000.0,0001.59,0006.37,0000.97
2024-05-09 22:38:00,SystemResetWarning,0833.4,4.99,000.00,025.1,024.5,000.0,033.1,026.9,019.3,0000.0,0001.59,0006.92,0000.96
2024-05-09 22:39:00,SystemResetWarning,0833.4,5.00,000.00,025.1,024.6,000.0,033.2,027.0,019.4,0000.0,0001.64,0007.56,0000.95
2024-05-09 22:40:00,SystemResetWarning,0833.4,5.01,000.00,025.2,024.7,000.0,033.2,027.1,019.6,0000.0,0001.61,0008.03,0000.92
2024-05-09 22:41:00,SystemResetWarning,0833.4,5.01,000.00,025.2,024.8,000.0,033.2,027.1,019.6,0000.0,0001.63,0007.35,0000.90
2024-05-09 22:42:00,SystemResetWarning,0833.4,5.01,000.00,025.3,024.9,000.0,033.3,027.2,019.5,0000.0,0001.67,0007.39,0000.88
2024-05-09 22:43:00,SystemResetWarning,0833.5,5.00,000.00,025.3,025.0,000.0,033.3,027.2,019.5,0000.0,0001.71,0008.17,0000.88
2024-05-09 22:44:00,SystemResetWarning,0833.5,5.00,000.00,025.4,025.0,000.0,033.4,027.3,019.5,0000.0,0001.75,0008.97,0000.88
2024-05-09 22:45:00,SystemResetWarning,0833.5,5.00,000.00,025.4,025.1,000.0,033.4,027.3,019.3,0000.0,0001.77,0009.35,0000.88
2024-05-09 22:46:00,SystemResetWarning,0833.6,5.00,000.00,025.5,025.1,000.0,033.4,027.4,019.1,0000.0,0001.81,0009.54,0000.88
2024-05-09 22:47:00,SystemResetWarning,0833.6,5.00,000.00,025.5,025.2,000.0,033.5,027.4,019.1,0000.0,0001.77,0010.19,0000.88
2024-05-09 22:48:00,SystemResetWarning,0833.6,4.99,000.00,025.6,025.3,000.0,033.5,027.5,019.1,0000.0,0001.69,0010.07,0000.87
2024-05-09 22:49:00,SystemResetWarning,0833.7,5.00,000.00,025.6,025.3,000.0,033.6,027.5,019.4,0000.0,0001.71,0010.14,0000.87
2024-05-09 22:50:00,SystemResetWarning,0833.7,5.01,000.00,025.7,025.3,000.0,033.6,027.5,019.3,0000.0,0001.68,0010.29,0000.88
2024-05-09 22:51:00,SystemResetWarning,0833.7,5.01,000.00,025.7,025.4,000.0,033.7,027.6,019.1,0000.0,0001.69,0010.02,0000.89
2024-05-09 22:52:00,SystemResetWarning,0833.7,4.99,000.00,025.8,025.4,000.0,033.7,027.6,018.9,0000.0,0001.67,0009.99,0000.90
2024-05-09 22:53:00,SystemResetWarning,0833.7,5.00,000.00,025.8,025.4,000.0,033.8,027.7,018.8,0000.0,0001.65,0010.11,0000.91
2024-05-09 22:54:00,SystemResetWarning,0833.7,4.99,000.00,025.8,024.7,000.0,033.8,027.2,019.0,0000.0,0001.63,0010.00,0000.91
2024-05-09 22:55:00,SystemResetWarning,0833.6,5.01,000.00,025.3,022.5,000.0,033.9,026.0,019.6,0000.0,0001.61,0009.62,0000.91
2024-05-09 22:56:00,SystemResetWarning,0833.5,5.01,000.00,025.0,022.2,000.0,033.9,025.8,020.1,0000.0,0001.65,0009.13,0000.91
2024-05-09 22:57:00,SystemResetWarning,0833.6,5.01,000.00,024.9,022.5,000.0,033.7,026.0,020.4,0000.0,0001.63,0008.96,0000.91
2024-05-09 22:58:00,SystemResetWarning,0833.6,5.00,000.00,024.9,022.9,000.0,033.6,026.2,020.1,0000.0,0001.62,0008.32,0000.92
2024-05-09 22:59:00,SystemResetWarning,0833.6,4.99,000.00,024.9,023.3,000.0,033.5,026.4,019.8,0000.0,0001.63,0007.63,0000.92
